Wind_Speed
14 13 12 12 12 12 13 13 13 13 13 13 13 12 12 13 13 13 12 12 13 14 14 15 15 16 16 17 17 17 17 18 19 19 20 20 20 20 20 21 22 23 23
13 14 14 13 13 13 14 14 14 14 13 13 14 13 13 13 13 13 13 13 13 14 15 15 16 17 17 16 17 17 18 19 19 19 20 20 20 21 21 22 23 24 24
14 14 15 14 14 14 14 14 14 14 13 12 13 13 12 12 12 12 12 13 14 15 16 16 17 17 17 17 17 18 19 19 19 19 20 20 21 22 23 24 24 25 25
15 15 15 15 15 15 15 14 14 14 13 13 13 12 12 12 13 13 13 14 14 14 15 15 16 16 16 17 18 18 19 20 20 20 20 21 22 23 24 24 25 26 27
16 16 16 16 16 16 16 15 15 15 14 14 13 13 13 14 13 13 14 14 15 15 16 17 17 17 18 19 19 20 20 20 21 21 21 22 23 24 25 26 26 27 27
17 17 16 16 17 16 16 16 16 15 15 15 15 14 14 14 14 15 15 15 16 17 17 18 19 19 19 20 20 21 20 20 21 22 22 23 24 25 25 26 26 27 27
18 18 17 17 17 17 17 17 17 16 17 16 16 15 15 15 15 16 16 17 18 18 18 19 19 19 19 19 20 20 20 21 21 22 23 23 24 24 25 26 26 27 27
19 19 18 17 18 18 18 18 18 18 17 17 16 16 16 16 17 17 18 19 19 19 19 19 19 19 19 20 20 20 20 21 22 22 22 23 24 25 26 27 27 28 29
20 19 19 18 18 18 19 19 19 19 18 17 16 17 17 17 18 18 18 19 20 20 20 20 19 19 19 20 20 20 21 21 22 23 24 24 25 26 27 27 28 28 28
20 19 19 19 19 19 19 19 19 19 19 18 17 17 17 18 18 18 19 20 20 21 20 20 20 20 20 20 21 21 22 22 23 23 24 25 26 26 26 27 28 28 29
20 19 19 19 19 19 20 20 20 20 19 18 18 18 18 19 19 19 19 20 20 20 20 20 21 22 22 22 22 22 22 22 23 23 24 24 25 26 26 27 28 29 29
20 20 20 20 20 20 21 21 20 20 20 19 19 19 20 20 20 20 20 21 20 20 21 21 22 22 22 22 22 22 22 23 24 24 24 25 25 26 27 28 28 29 30
21 21 21 21 21 22 22 21 21 21 20 20 20 20 20 21 21 21 21 21 21 21 22 22 21 22 22 22 22 23 23 23 24 25 25 26 26 27 28 28 29 30 30
22 21 21 22 22 22 22 22 22 22 22 22 21 21 21 21 21 21 21 21 21 21 21 22 22 23 24 24 24 24 24 24 25 26 27 27 28 28 28 29 29 30 30
21 21 21 22 22 22 22 22 22 22 22 23 22 22 22 22 21 22 22 22 22 22 22 23 24 25 25 25 25 25 26 26 26 27 27 28 28 28 28 29 29 30 30
21 21 22 22 22 22 22 22 23 23 23 24 23 23 23 23 22 23 23 23 23 24 24 24 25 25 25 26 26 27 27 27 27 28 28 28 29 29 29 29 29 29 30
23 22 22 22 22 22 22 23 23 24 24 25 25 24 24 24 24 24 24 24 25 25 26 26 26 26 27 27 27 27 28 28 28 29 29 29 29 30 30 30 30 30 30
24 23 22 22 22 23 23 23 24 24 25 25 26 25 25 25 25 25 24 25 26 26 27 27 27 28 28 28 28 28 28 28 28 29 30 30 30 30 30 30 30 30 30
24 23 23 23 23 23 23 24 24 24 25 25 25 26 26 25 25 25 26 26 27 28 28 28 28 29 29 29 29 30 30 29 29 30 31 31 31 31 31 31 31 31 31
25 25 24 24 24 24 24 24 24 24 25 25 25 25 26 26 26 26 26 26 27 28 29 29 29 29 30 30 30 30 30 30 30 31 31 31 31 31 31 31 31 31 31
25 25 25 25 25 25 25 25 25 25 26 26 26 26 26 26 26 26 26 27 28 29 29 29 30 30 30 30 30 30 30 31 31 31 31 31 31 31 31 31 32 31 31
25 25 25 25 25 25 25 25 26 26 26 27 27 27 27 27 27 28 28 28 29 29 30 30 31 31 31 31 31 31 32 32 32 33 32 31 31 32 32 32 32 32 32
25 25 25 25 25 25 25 26 27 27 27 28 28 28 28 28 28 28 29 30 30 30 30 31 31 31 31 32 32 33 33 32 33 33 33 32 32 32 32 33 33 33 33
25 25 25 25 25 25 26 27 27 28 28 28 28 29 29 29 29 29 30 30 30 31 31 32 32 32 32 32 33 34 34 33 33 33 32 33 33 33 33 33 34 33 33
26 25 25 25 25 26 26 27 28 28 28 29 29 29 30 29 29 29 30 30 30 31 32 32 32 33 33 34 34 34 34 34 33 33 33 33 34 33 34 34 34 34 34
26 25 26 26 26 27 28 28 29 29 29 30 30 30 29 29 30 30 30 31 31 32 32 33 33 33 34 35 35 34 34 34 34 34 34 35 35 34 34 34 34 34 34
Wind_Direction
341 340 338 337 337 333 331 328 324 320 315 309 304 302 301 300 296 295 295 295 292 292 294 293 294 297 298 297 291 290 290 290 289 288 291 292 291 291 292 294 296 296 295
335 338 339 336 336 333 329 327 325 320 316 311 306 302 302 304 301 297 295 296 295 294 295 296 295 296 297 299 297 297 297 294 292 291 293 294 294 295 297 298 297 297 298
328 331 333 332 331 330 330 330 329 328 324 320 315 307 306 307 306 305 303 300 297 296 296 297 296 298 300 299 301 301 300 299 296 296 295 295 294 296 298 299 299 299 298
323 323 324 324 323 322 324 327 328 328 324 321 318 313 312 309 308 307 306 305 303 302 301 300 300 301 303 303 301 301 300 300 299 299 296 296 297 297 298 299 300 301 300
318 317 316 316 316 318 320 323 325 325 322 320 317 314 312 310 308 309 308 307 306 305 303 302 301 301 301 302 302 301 300 300 301 299 297 298 300 299 300 299 300 301 301
312 312 312 312 312 314 316 317 318 319 318 315 314 313 311 310 308 308 307 307 306 305 304 304 303 301 301 301 301 301 301 301 301 299 298 298 299 300 302 303 303 303 302
306 307 308 308 309 310 312 314 314 314 313 312 312 311 310 308 308 308 308 306 306 306 306 304 303 301 302 303 303 304 305 304 304 301 301 301 300 301 303 305 305 305 303
302 303 303 304 305 306 308 309 310 310 310 309 310 310 311 309 308 308 307 307 306 307 306 304 303 303 303 306 306 306 307 307 306 306 306 304 303 303 304 304 305 305 304
297 298 299 301 303 304 304 306 307 308 308 308 308 309 309 309 307 307 306 307 307 307 307 306 305 305 306 306 306 306 305 306 306 307 307 306 306 305 305 306 307 308 305
294 295 296 298 300 302 304 305 305 307 308 307 308 309 309 308 306 306 306 307 307 307 307 307 307 307 306 307 306 307 306 307 307 307 307 307 308 307 307 307 308 309 308
291 291 295 297 298 300 304 305 304 306 307 308 308 307 307 308 308 307 307 308 308 308 308 307 307 307 305 305 305 306 307 308 308 308 308 309 309 309 309 309 309 310 310
289 290 292 295 297 300 303 305 304 304 305 306 306 306 306 305 306 308 309 310 310 310 311 310 308 307 305 303 304 305 306 307 308 308 307 307 309 309 310 310 310 311 311
285 287 289 293 297 299 300 302 304 303 303 304 305 305 305 305 306 307 308 309 310 311 313 312 310 310 309 306 304 305 306 308 309 308 307 308 309 310 310 311 312 312 312
282 284 288 291 294 297 297 297 300 303 302 303 304 304 304 304 305 307 308 309 311 312 313 313 312 311 310 310 308 306 306 307 307 309 310 310 310 310 310 311 312 312 313
283 284 286 289 292 294 295 295 299 302 303 303 304 304 305 304 304 306 307 309 310 311 311 311 311 310 309 310 310 309 307 307 307 309 311 311 311 310 310 311 312 312 313
282 283 285 287 289 291 292 294 297 300 301 303 304 304 304 303 303 305 306 308 308 309 309 309 309 310 311 310 310 309 308 307 307 309 310 311 311 311 311 311 312 312 312
280 282 283 285 287 289 290 293 296 298 299 301 302 303 302 302 303 304 305 306 307 307 307 307 307 308 309 310 309 308 309 309 309 309 309 309 309 310 311 312 312 311 311
277 278 280 282 285 287 289 291 294 296 298 299 301 301 301 300 302 303 304 305 306 306 307 306 307 307 309 308 308 308 309 309 310 310 310 310 310 311 311 311 312 311 311
276 277 277 279 282 285 287 290 293 296 298 299 300 301 300 301 303 304 304 304 305 306 306 306 306 307 308 308 308 308 309 309 310 311 311 311 310 310 311 311 311 311 311
274 275 275 277 280 283 286 289 294 297 299 299 301 301 302 303 303 303 303 304 305 305 306 306 307 308 308 308 308 308 308 309 310 310 311 311 310 310 310 311 311 311 311
272 273 275 277 279 281 284 287 290 294 297 298 300 300 301 301 301 302 302 304 304 304 304 305 306 307 307 307 307 307 308 309 309 310 310 310 310 310 310 310 311 311 312
271 273 273 275 277 279 282 284 287 291 294 296 297 299 300 300 300 300 301 303 303 303 304 304 305 306 306 306 306 307 307 308 308 309 309 309 310 311 310 310 310 310 310
269 271 274 275 277 279 281 284 286 289 292 294 296 297 298 299 299 300 300 300 301 302 303 304 305 305 306 306 306 306 307 307 308 309 309 309 310 311 311 310 309 309 309
271 273 275 276 277 279 280 282 285 287 290 293 295 296 297 297 298 299 299 299 300 301 303 304 305 306 306 306 307 307 306 306 306 307 308 308 309 310 310 310 309 309 309
272 274 275 276 277 278 280 282 285 286 288 290 292 295 295 295 297 298 298 299 300 302 302 303 304 305 306 305 305 306 305 305 304 305 306 307 307 307 308 309 309 308 308
271 273 275 277 278 280 281 283 285 286 287 289 292 294 295 295 295 296 297 298 300 302 303 303 304 304 305 306 306 305 305 305 304 305 306 305 306 306 307 307 307 307 307
Height
5909 5907 5905 5903 5901 5899 5898 5896 5894 5891 5889 5887 5886 5885 5883 5882 5881 5880 5879 5878 5877 5876 5874 5873 5872 5870 5869 5867 5865 5864 5863 5861 5860 5859 5857 5855 5854 5853 5851 5849 5847 5845 5843
5908 5906 5904 5902 5900 5898 5896 5894 5892 5889 5887 5885 5884 5882 5881 5880 5878 5877 5876 5875 5874 5873 5871 5870 5868 5867 5865 5863 5861 5860 5858 5857 5855 5854 5852 5851 5849 5847 5846 5844 5842 5839 5837
5907 5905 5903 5901 5899 5897 5895 5893 5890 5888 5885 5883 5882 5880 5879 5878 5876 5875 5874 5872 5871 5869 5868 5866 5864 5862 5861 5859 5857 5855 5854 5852 5850 5849 5848 5846 5844 5842 5840 5838 5836 5834 5831
5905 5904 5902 5900 5898 5896 5893 5891 5889 5886 5884 5882 5880 5879 5877 5876 5874 5872 5871 5869 5867 5866 5864 5862 5861 5859 5857 5855 5853 5852 5849 5848 5846 5844 5843 5841 5839 5837 5835 5832 5830 5828 5825
5903 5901 5899 5897 5895 5893 5891 5889 5887 5885 5883 5881 5879 5877 5875 5873 5872 5870 5868 5866 5865 5863 5861 5859 5857 5855 5853 5851 5849 5847 5845 5843 5841 5839 5838 5836 5833 5831 5829 5826 5824 5821 5818
5900 5898 5896 5894 5892 5891 5889 5886 5884 5883 5880 5878 5876 5874 5872 5870 5869 5867 5865 5863 5861 5859 5857 5855 5853 5851 5849 5847 5844 5842 5840 5838 5836 5834 5832 5830 5827 5825 5822 5820 5817 5814 5811
5897 5895 5893 5891 5889 5888 5886 5883 5882 5880 5878 5875 5873 5871 5869 5867 5865 5863 5861 5859 5857 5855 5853 5851 5849 5847 5844 5842 5840 5838 5835 5833 5831 5829 5827 5824 5822 5819 5816 5814 5811 5807 5804
5892 5891 5889 5888 5886 5884 5882 5880 5878 5876 5874 5872 5870 5868 5866 5864 5862 5860 5858 5856 5853 5851 5849 5846 5844 5842 5840 5838 5835 5833 5830 5828 5826 5824 5821 5819 5816 5813 5810 5807 5804 5801 5797
5888 5886 5885 5884 5882 5880 5878 5876 5874 5873 5871 5868 5866 5865 5863 5861 5859 5856 5854 5851 5849 5847 5844 5842 5840 5838 5836 5833 5831 5828 5826 5823 5820 5818 5815 5813 5810 5807 5804 5801 5797 5794 5790
5884 5882 5881 5880 5878 5877 5875 5872 5871 5869 5866 5864 5862 5861 5859 5857 5855 5852 5850 5847 5845 5842 5840 5838 5835 5833 5831 5828 5826 5823 5821 5818 5815 5813 5810 5807 5804 5801 5797 5794 5791 5787 5783
5879 5878 5877 5875 5874 5872 5870 5868 5866 5865 5862 5860 5859 5857 5855 5853 5850 5848 5845 5843 5840 5837 5835 5833 5830 5827 5825 5823 5820 5818 5815 5813 5810 5807 5804 5801 5798 5794 5791 5787 5783 5780 5776
5874 5872 5872 5870 5869 5868 5866 5864 5862 5860 5858 5856 5855 5853 5850 5848 5846 5843 5841 5838 5835 5832 5830 5827 5824 5822 5820 5817 5815 5812 5810 5807 5804 5801 5798 5795 5791 5788 5784 5780 5776 5772 5768
5868 5867 5866 5865 5864 5863 5861 5859 5858 5856 5854 5852 5850 5848 5846 5844 5841 5839 5836 5833 5830 5828 5825 5821 5819 5816 5814 5812 5809 5806 5804 5801 5798 5795 5792 5788 5785 5781 5777 5773 5769 5765 5761
5861 5861 5860 5860 5859 5857 5856 5854 5853 5851 5849 5847 5845 5843 5841 5839 5836 5834 5832 5829 5826 5823 5820 5817 5814 5812 5809 5806 5803 5800 5798 5795 5792 5788 5785 5781 5778 5774 5770 5766 5762 5758 5754
5855 5855 5854 5854 5853 5852 5851 5849 5848 5846 5844 5842 5840 5837 5835 5833 5831 5829 5826 5823 5821 5818 5815 5812 5809 5806 5804 5800 5797 5794 5791 5788 5785 5782 5778 5774 5771 5767 5763 5759 5755 5751 5747
5849 5848 5848 5848 5847 5846 5845 5843 5842 5840 5838 5836 5834 5832 5830 5828 5825 5823 5821 5818 5815 5813 5810 5807 5804 5801 5798 5795 5792 5788 5785 5782 5778 5775 5772 5768 5764 5760 5756 5752 5748 5744 5740
5843 5842 5842 5842 5841 5840 5839 5838 5836 5835 5832 5830 5828 5826 5824 5822 5819 5817 5815 5812 5809 5807 5804 5801 5798 5795 5792 5789 5785 5782 5778 5775 5772 5768 5764 5761 5757 5753 5749 5745 5740 5736 5732
5836 5836 5836 5835 5835 5834 5833 5832 5830 5829 5827 5824 5822 5820 5818 5816 5813 5811 5808 5806 5803 5800 5797 5794 5791 5788 5785 5782 5778 5775 5771 5768 5764 5761 5757 5753 5749 5745 5741 5737 5733 5729 5725
5830 5830 5829 5829 5828 5828 5827 5825 5824 5822 5820 5818 5816 5813 5811 5809 5807 5804 5802 5799 5796 5794 5791 5788 5785 5781 5778 5775 5771 5768 5764 5761 5757 5753 5750 5746 5742 5738 5734 5730 5726 5721 5717
5823 5823 5823 5822 5822 5821 5820 5819 5817 5815 5813 5811 5809 5807 5805 5802 5800 5798 5795 5793 5790 5787 5784 5781 5777 5774 5771 5768 5764 5760 5757 5753 5750 5746 5742 5738 5734 5730 5726 5722 5718 5714 5710
5816 5816 5815 5815 5815 5814 5813 5812 5810 5809 5807 5805 5803 5801 5798 5796 5794 5791 5788 5786 5783 5779 5776 5773 5770 5767 5764 5760 5757 5753 5749 5746 5742 5738 5734 5730 5726 5722 5718 5714 5710 5706 5702
5808 5808 5808 5808 5808 5807 5806 5805 5803 5802 5800 5798 5796 5794 5791 5789 5787 5784 5781 5778 5775 5772 5769 5766 5762 5759 5756 5752 5749 5745 5742 5738 5734 5730 5726 5722 5718 5714 5710 5706 5702 5698 5694
5801 5801 5801 5800 5800 5799 5798 5797 5796 5795 5793 5791 5789 5786 5784 5782 5779 5776 5774 5771 5768 5764 5761 5758 5754 5751 5748 5744 5740 5737 5733 5729 5725 5722 5718 5714 5710 5706 5702 5698 5694 5690 5686
5794 5794 5794 5793 5792 5791 5791 5789 5788 5787 5785 5784 5781 5779 5776 5774 5771 5769 5766 5763 5760 5757 5753 5750 5747 5743 5739 5736 5732 5728 5725 5721 5717 5713 5709 5705 5702 5697 5693 5689 5685 5681 5677
5787 5787 5786 5785 5785 5784 5783 5782 5780 5779 5778 5776 5774 5771 5769 5766 5763 5761 5758 5755 5752 5749 5745 5742 5738 5735 5731 5727 5723 5720 5716 5712 5708 5704 5700 5696 5692 5688 5684 5680 5676 5672 5668
5779 5779 5778 5778 5777 5776 5775 5774 5772 5771 5769 5767 5766 5763 5761 5758 5756 5753 5750 5747 5744 5740 5737 5733 5729 5726 5722 5718 5714 5710 5706 5702 5699 5695 5691 5687 5683 5679 5675 5671 5667 5663 5659